Madison, SD

9:19 PM CDT on September 30, 2016 (GMT -0500)
Madison Municipal

Weather History for KMDS - September, 2013

Change the Weather History Date:

Friday, September 20, 2013

  Actual Average Record
Temperature  
Mean Temperature 52 °F -  
Max Temperature 62 °F 69 °F 86 °F (2010)
Min Temperature 41 °F 45 °F 41 °F (2012)
Degree Days  
Heating Degree Days 14    
Growing Degree Days 2 (Base 50)    
Moisture  
Dew Point 44 °F    
Average Humidity 78    
Maximum Humidity 100    
Minimum Humidity 39    
Precipitation  
Precipitation 0.00 in - - ()
Sea Level Pressure  
Sea Level Pressure 30.00 in    
Wind  
Wind Speed 13 mph (NW)    
Max Wind Speed 20 mph    
Max Gust Speed 29 mph    
Visibility 10 miles    
Events      
Averages and records for this station are not official NWS values.
T = Trace of Precipitation, MM = Missing Value Source: NWS Daily Summary

Daily Weather History Graph

Daily Weather History Graph

Search for Another Location

Airport or City:

Trip Planner

Search our weather history database for the weather conditions in past years. The results will help you decide how hot, cold, wet, or windy it might be!

Date:

Astronomy

Sep. 20, 2013 Rise Set
Actual Time 7:13 AM CDT 7:28 PM CDT
Civil Twilight 6:44 AM CDT 7:57 PM CDT
Nautical Twilight 6:10 AM CDT 8:31 PM CDT
Astronomical Twilight 5:35 AM CDT 9:06 PM CDT
Moon 7:58 PM CDT (9/20) 8:33 AM CDT (9/20)
Length of Visible Light 13h 13m
Length of Day
12h 15m
Full, 98% of the Moon is Illuminated
Sep 20
Full
Sep 26
Last Quarter
Oct 4
New
Oct 11
First Quarter
Oct 18
Full

Hourly Weather History & Observations

Time (CDT) Temp. Windchill Dew Point Humidity Pressure Visibility Wind Dir Wind Speed Gust Speed Precip Events Conditions
12:10 AM 50.0 °F - 46.4 °F 87% 29.98 in 10.0 mi WNW 11.5 mph - N/A   Clear
12:30 AM 48.2 °F - 46.4 °F 93% 29.98 in 10.0 mi WNW 11.5 mph - N/A   Clear
12:50 AM 48.2 °F - 46.4 °F 93% 29.98 in 10.0 mi WNW 11.5 mph - N/A   Clear
1:10 AM 48.2 °F - 46.4 °F 93% 29.98 in 10.0 mi WNW 11.5 mph 17.3 mph N/A   Clear
1:30 AM 48.2 °F - 46.4 °F 93% 29.98 in 10.0 mi WNW 12.7 mph - N/A   Clear
1:50 AM 48.2 °F - 48.2 °F 100% 29.99 in 10.0 mi WNW 12.7 mph - N/A   Scattered Clouds
2:10 AM 48.2 °F - 48.2 °F 100% 29.99 in 10.0 mi WNW 10.4 mph - N/A   Overcast
2:30 AM 48.2 °F - 48.2 °F 100% 29.99 in 10.0 mi WNW 11.5 mph - N/A   Overcast
2:50 AM 46.4 °F 41.5 °F 46.4 °F 100% 29.98 in 10.0 mi WNW 10.4 mph - N/A   Scattered Clouds
3:10 AM 46.4 °F 41.5 °F 46.4 °F 100% 29.98 in 10.0 mi WNW 10.4 mph - N/A   Clear
3:30 AM 48.2 °F - 48.2 °F 100% 29.97 in 10.0 mi WNW 11.5 mph - N/A   Clear
3:50 AM 48.2 °F - 48.2 °F 100% 29.98 in 10.0 mi WNW 11.5 mph - N/A   Clear
4:10 AM 48.2 °F - 48.2 °F 100% 29.98 in 10.0 mi WNW 10.4 mph - N/A   Mostly Cloudy
4:30 AM 48.2 °F - 48.2 °F 100% 29.98 in 10.0 mi WNW 12.7 mph - N/A   Overcast
4:50 AM 48.2 °F - 48.2 °F 100% 29.98 in 10.0 mi NW 13.8 mph 18.4 mph N/A   Overcast
5:10 AM 50.0 °F - 50.0 °F 100% 29.98 in 10.0 mi NW 15.0 mph 20.7 mph N/A   Overcast
5:30 AM 50.0 °F - 50.0 °F 100% 29.98 in 10.0 mi NW 15.0 mph 21.9 mph N/A   Overcast
5:50 AM 48.2 °F - 48.2 °F 100% 29.98 in 10.0 mi NW 15.0 mph 23.0 mph N/A   Overcast
6:10 AM 48.2 °F - 48.2 °F 100% 29.99 in 10.0 mi NW 17.3 mph 24.2 mph N/A   Overcast
6:30 AM 48.2 °F - 48.2 °F 100% 30.00 in 10.0 mi NW 13.8 mph 20.7 mph N/A   Overcast
6:50 AM 48.2 °F - 48.2 °F 100% 30.00 in 10.0 mi NW 16.1 mph 23.0 mph N/A   Overcast
7:10 AM 48.2 °F - 48.2 °F 100% 30.01 in 10.0 mi NW 15.0 mph 20.7 mph N/A   Overcast
7:30 AM 48.2 °F - 48.2 °F 100% 30.02 in 10.0 mi NW 11.5 mph - N/A   Overcast
7:50 AM 48.2 °F - 48.2 °F 100% 30.02 in 10.0 mi NW 15.0 mph 20.7 mph N/A   Overcast
8:10 AM 48.2 °F - 48.2 °F 100% 30.02 in 10.0 mi NW 15.0 mph 23.0 mph N/A   Overcast
8:30 AM 50.0 °F - 50.0 °F 100% 30.02 in 10.0 mi NW 13.8 mph - N/A   Overcast
8:50 AM 50.0 °F - 50.0 °F 100% 30.02 in 10.0 mi NW 16.1 mph 21.9 mph N/A   Overcast
9:10 AM 50.0 °F - 48.2 °F 94% 30.03 in 10.0 mi WNW 17.3 mph 21.9 mph N/A   Overcast
9:30 AM 50.0 °F - 48.2 °F 94% 30.04 in 10.0 mi NW 18.4 mph 24.2 mph N/A   Overcast
9:50 AM 50.0 °F - 48.2 °F 94% 30.04 in 10.0 mi WNW 18.4 mph 26.5 mph N/A   Mostly Cloudy
10:10 AM 53.6 °F - 46.4 °F 77% 30.04 in 10.0 mi NW 19.6 mph 24.2 mph N/A   Mostly Cloudy
10:30 AM 53.6 °F - 46.4 °F 77% 30.04 in 10.0 mi NW 16.1 mph - N/A   Mostly Cloudy
10:50 AM 53.6 °F - 44.6 °F 72% 30.04 in 10.0 mi NW 17.3 mph 24.2 mph N/A   Mostly Cloudy
11:10 AM 53.6 °F - 42.8 °F 67% 30.04 in 10.0 mi WNW 18.4 mph 26.5 mph N/A   Overcast
11:30 AM 53.6 °F - 42.8 °F 67% 30.05 in 10.0 mi NW 18.4 mph 26.5 mph N/A   Overcast
11:50 AM 55.4 °F - 41.0 °F 58% 30.04 in 10.0 mi WNW 19.6 mph 24.2 mph N/A   Overcast
12:10 PM 53.6 °F - 42.8 °F 67% 30.03 in 10.0 mi WNW 18.4 mph 23.0 mph N/A   Overcast
12:30 PM 55.4 °F - 41.0 °F 58% 30.03 in 10.0 mi NW 13.8 mph 25.3 mph N/A   Mostly Cloudy
12:50 PM 57.2 °F - 41.0 °F 55% 30.03 in 10.0 mi NW 19.6 mph 24.2 mph N/A   Mostly Cloudy
1:10 PM 57.2 °F - 41.0 °F 55% 30.02 in 10.0 mi NW 17.3 mph 25.3 mph N/A   Mostly Cloudy
1:30 PM 57.2 °F - 41.0 °F 55% 30.02 in 10.0 mi NW 19.6 mph 26.5 mph N/A   Mostly Cloudy
1:50 PM 57.2 °F - 41.0 °F 55% 30.01 in 10.0 mi NW 19.6 mph 27.6 mph N/A   Scattered Clouds
2:10 PM 57.2 °F - 39.2 °F 51% 30.01 in 10.0 mi NNW 16.1 mph 27.6 mph N/A   Partly Cloudy
2:30 PM 57.2 °F - 39.2 °F 51% 30.01 in 10.0 mi NW 19.6 mph 27.6 mph N/A   Partly Cloudy
2:50 PM 59.0 °F - 39.2 °F 48% 30.01 in 10.0 mi NW 16.1 mph 27.6 mph N/A   Scattered Clouds
3:10 PM 59.0 °F - 39.2 °F 48% 30.00 in 10.0 mi NNW 19.6 mph 26.5 mph N/A   Partly Cloudy
3:30 PM 60.8 °F - 39.2 °F 45% 30.00 in 10.0 mi NW 16.1 mph 28.8 mph N/A   Partly Cloudy
3:50 PM 60.8 °F - 39.2 °F 45% 29.99 in 10.0 mi NW 16.1 mph 25.3 mph N/A   Partly Cloudy
4:10 PM 60.8 °F - 39.2 °F 45% 29.99 in 10.0 mi NW 15.0 mph 23.0 mph N/A   Partly Cloudy
4:30 PM 60.8 °F - 39.2 °F 45% 29.99 in 10.0 mi NNW 18.4 mph 23.0 mph N/A   Partly Cloudy
4:50 PM 60.8 °F - 37.4 °F 42% 29.99 in 10.0 mi NW 15.0 mph 26.5 mph N/A   Clear
5:10 PM 62.6 °F - 37.4 °F 39% 29.98 in 10.0 mi NW 16.1 mph 26.5 mph N/A   Clear
5:30 PM 62.6 °F - 37.4 °F 39% 29.98 in 10.0 mi NNW 15.0 mph 24.2 mph N/A   Clear
5:50 PM 62.6 °F - 37.4 °F 39% 29.98 in 10.0 mi NNW 12.7 mph 19.6 mph N/A   Clear
6:10 PM 60.8 °F - 37.4 °F 42% 29.98 in 10.0 mi NW 12.7 mph 17.3 mph N/A   Clear
6:30 PM 59.0 °F - 37.4 °F 45% 29.98 in 10.0 mi NW 10.4 mph - N/A   Clear
6:50 PM 59.0 °F - 39.2 °F 48% 29.99 in 10.0 mi NW 9.2 mph - N/A   Clear
7:10 PM 57.2 °F - 39.2 °F 51% 29.98 in 10.0 mi NW 6.9 mph - N/A   Clear
7:30 PM 53.6 °F - 39.2 °F 58% 29.98 in 10.0 mi NW 5.8 mph - N/A   Clear
7:50 PM 51.8 °F - 41.0 °F 67% 29.98 in 10.0 mi NW 4.6 mph - N/A   Clear
8:10 PM 51.8 °F - 39.2 °F 62% 29.99 in 10.0 mi NW 3.5 mph - N/A   Clear
8:30 PM 48.2 °F - 41.0 °F 76% 29.99 in 10.0 mi WNW 3.5 mph - N/A   Clear
8:50 PM 46.4 °F 44.3 °F 41.0 °F 81% 29.99 in 10.0 mi NW 4.6 mph - N/A   Clear
9:10 PM 46.4 °F 45.2 °F 41.0 °F 81% 29.99 in 10.0 mi NW 3.5 mph - N/A   Clear
9:30 PM 46.4 °F 45.2 °F 41.0 °F 81% 29.99 in 10.0 mi NW 3.5 mph - N/A   Clear
9:50 PM 44.6 °F 42.2 °F 41.0 °F 87% 30.00 in 10.0 mi NW 4.6 mph - N/A   Clear
10:10 PM 44.6 °F 42.2 °F 41.0 °F 87% 29.99 in 10.0 mi NW 4.6 mph - N/A   Clear
10:30 PM 42.8 °F 40.1 °F 41.0 °F 93% 30.00 in 10.0 mi SW 4.6 mph - N/A   Clear
10:50 PM 44.6 °F - 42.8 °F 93% 30.00 in 10.0 mi Calm Calm - N/A   Clear
11:10 PM 41.0 °F 39.0 °F 41.0 °F 100% 30.00 in 10.0 mi WNW 3.5 mph - N/A   Clear
11:30 PM 41.0 °F - 41.0 °F 100% 30.00 in 10.0 mi Calm Calm - N/A   Clear
11:50 PM 41.0 °F 39.0 °F 41.0 °F 100% 30.00 in 10.0 mi NW 3.5 mph - N/A   Clear